OneWeb SL0238

operational
NORAD ID: 48784 Int'l Des: 2021-045 Owner: ONEWEBN Country: UK Constellation: oneweb
LEOCIRCULARPOLARONEWEB_TYPE

About OneWeb SL0238

Description loading...

Live Position

Loading 3D Globe...

Upcoming Passes

Altitude History

Altitude vs Time

uPlot chart will show altitude changes over time

Two-Line Element Set

1 48784U 21045T 25307.72780020 -.00000030 00000-0 -11489-3 0 9997
2 48784 87.8951 304.1634 0001987 81.5788 278.5568 13.15546442214737
Epoch: Nov 3, 2025 • Age: 11 hours

Current Status

Altitude 1213.2 km
Velocity 7.25 km/s
Sub-Earth Point -29.29°S, 164.84°W
Launch Date May 28, 2021
Age 4.4 years
Type internet

Technical Details

Classification Payload
Mass 148.00 kg
Dry Mass 140.00 kg
Total Mass 148.00 kg
Length 1.30 m
Diameter 1.00 m
Span 5.00 m
Shape Trapezoid+2 pan
Manufacturer ONEWUS
Bus Type ARROW
Phase Status In Orbit
Owner/State ONEWEBN/UK

Large Constellations

Loading constellations...